Content
SEND FEEDBACK

Daily
Averages
Monthly
Summary
United States of America

CASTLE HAYNE, NORTH CAROLINA


Home > North America > United States > North Carolina
Elevation: 35 feet     Latitude: 34 19N     Longitude: 077 55W

WEATHER
 
SELECT A DAY
Number of Records: 208,677;   Date Range: 1/1/95 - 7/22/14
 
SHARE

PRINT THIS DATA

[ ← Previous Day ]
WEATHER ALMANAC - FEBRUARY 28, 2013
[ Next Day → ]
[ °C ]   °F
Weather ElementAverageHighLow
Temperature48.9 °F57 °F (10:53 am)39.9 °F (10:53 pm)
Dewpoint35.6 °F39.9 °F (2:53 am)32 °F (5:53 pm)
Humidity62.1 %86 % (6:53 am)42 % (12:53 pm)
Barometer29.79 in29.86 in (9:53 pm)29.73 in (12:53 pm)
Wind Speed10 mph17.3 mph (10:53 am)
Wind Gust24.2 mph (12:53 pm)
Weather ElementAverage
Visibility10 mi
Wind DirectionWSW (242.3 °)

Weather ElementTotal
Precipitation---
Heating Degree Days16.6 (Base 65)
Averaged from 22 records on February 28, 2013
WEATHER CONDITIONS BREAKOUT
WIND DIRECTION BREAKOUT
WEATHER BY HOUR - FEBRUARY 28, 2013
[ °C ]   °F
Local TimeTemperatureDewpointHumidityBarometerVisibilityWind DirectionWind SpeedGust SpeedPrecipitationEventsConditions
2:53 AM48.0 °F39.9 °F74 %29.76 in10.0 miWSW (240°)10.4 mphClear
3:53 AM46.0 °F39.9 °F79 %29.75 in10.0 miWSW (240°)9.2 mphClear
4:53 AM45.0 °F39.9 °F82 %29.76 in10.0 miWSW (240°)9.2 mphClear
5:53 AM44.1 °F39.0 °F82 %29.78 in10.0 miWest (260°)5.8 mphClear
6:53 AM43.0 °F39.0 °F86 %29.78 in10.0 miWSW (250°)4.6 mphClear
7:53 AM46.9 °F39.9 °F77 %29.79 in10.0 miWSW (250°)9.2 mphClear
8:53 AM50.0 °F39.0 °F66 %29.80 in10.0 miWest (270°)13.8 mph21.9 mphClear
9:53 AM54.0 °F37.0 °F53 %29.79 in10.0 miWest (270°)12.7 mphClear
10:53 AM57.0 °F37.0 °F47 %29.77 in10.0 miWest (270°)17.3 mphClear
11:53 AM57.0 °F35.1 °F44 %29.75 in10.0 miWest (260°)16.1 mph23.0 mphScattered Clouds
12:53 PM57.0 °F34.0 °F42 %29.73 in10.0 miWest (270°)16.1 mph24.2 mphScattered Clouds
1:53 PM55.0 °F34.0 °F45 %29.73 in10.0 miWest (280°)17.3 mphMostly Cloudy
2:53 PM55.0 °F33.1 °F43 %29.73 in10.0 miWest (280°)16.1 mphOvercast
3:53 PM53.6 °F33.8 °F47 %29.75 in10.0 miWNW (290°)10.4 mph23.0 mphOvercast
4:53 PM52.0 °F33.1 °F49 %29.77 in10.0 miWest (280°)12.7 mph21.9 mphOvercast
5:53 PM51.1 °F32.0 °F48 %29.79 in10.0 miWNW (300°)13.8 mphMostly Cloudy
6:53 PM48.9 °F32.0 °F52 %29.81 in10.0 miWNW (290°)10.4 mphPartly Cloudy
7:53 PM46.4 °F32.0 °F57 %29.84 in10.0 miWest (280°)6.9 mphClear
8:53 PM44.6 °F33.8 °F66 %29.85 in10.0 miWSW (250°)4.6 mphClear
9:53 PM42.1 °F34.0 °F73 %29.86 in10.0 miCalmClear
10:53 PM39.9 °F33.1 °F77 %29.86 in10.0 miWest (260°)3.5 mphClear
11:53 PM39.9 °F33.1 °F77 %29.86 in10.0 miCalmClear
Hourly data recorded from KILM, located miles away from Castle Hayne, North Carolina







STORIES FROM OUR PARTNERS